TimeBST,TemperatureF,Dew PointF,Humidity,Sea Level PressureIn,VisibilityMPH,Wind Direction,Wind SpeedMPH,Gust SpeedMPH,PrecipitationIn,Events,Conditions,WindDirDegrees,DateUTC
12:20 AM,57.2,55.4,94,30.06,-9999.0,ENE,9.2,-,N/A,,Haze,70,2012-10-24 23:20:00
12:50 AM,57,55,92,30.06,4,ENE,11.5,,,,Light Haze,70,2012-10-24 23:50:00
12:50 AM,57.2,55.4,94,30.06,-9999.0,East,11.5,-,N/A,,Haze,80,2012-10-24 23:50:00
1:20 AM,57.2,55.4,94,30.04,3.1,ENE,10.4,-,N/A,,Mostly Cloudy,70,2012-10-25 00:20:00
1:50 AM,57.2,55.4,94,30.04,-9999.0,ENE,10.4,-,N/A,,Haze,70,2012-10-25 00:50:00
2:20 AM,57.2,55.4,94,30.04,3.1,ENE,10.4,-,N/A,,Mostly Cloudy,70,2012-10-25 01:20:00
2:50 AM,55.4,55.4,100,30.04,-9999.0,ENE,10.4,-,N/A,,Haze,70,2012-10-25 01:50:00
3:20 AM,55.4,55.4,100,30.04,-9999.0,ENE,12.7,-,N/A,,Scattered Clouds,60,2012-10-25 02:20:00
3:50 AM,56,55,94,30.04,1,ENE,10.4,,,Rain,Drizzle,60,2012-10-25 02:50:00
3:50 AM,55.4,53.6,94,30.04,1.1,ENE,10.4,-,N/A,,Overcast,70,2012-10-25 02:50:00
4:20 AM,55.4,53.6,94,30.04,1.2,ENE,11.5,-,N/A,,Mostly Cloudy,70,2012-10-25 03:20:00
4:50 AM,55.4,53.6,94,30.04,1.6,ENE,10.4,-,N/A,,Mostly Cloudy,70,2012-10-25 03:50:00
5:50 AM,55.4,53.6,94,30.04,2.5,ENE,10.4,-,N/A,,Mostly Cloudy,70,2012-10-25 04:50:00
6:20 AM,55.4,53.6,94,30.04,2.5,ENE,10.4,-,N/A,,Mostly Cloudy,70,2012-10-25 05:20:00
6:50 AM,55,54,94,30.03,3,ENE,10.4,,,Rain,Light Drizzle,60,2012-10-25 05:50:00
6:50 AM,55.4,53.6,94,30.04,2.5,ENE,10.4,-,N/A,,Mostly Cloudy,70,2012-10-25 05:50:00
7:20 AM,55.4,53.6,94,30.04,-9999.0,ENE,8.1,-,N/A,,Mostly Cloudy,70,2012-10-25 06:20:00
7:50 AM,55.4,53.6,94,30.04,1.9,ENE,10.4,-,N/A,,Light Drizzle,70,2012-10-25 06:50:00
8:20 AM,55.4,53.6,94,30.04,3.1,ENE,10.4,-,N/A,,Mostly Cloudy,70,2012-10-25 07:20:00
8:50 AM,55.4,53.6,94,30.04,5.6,ENE,10.4,-,N/A,,Mostly Cloudy,70,2012-10-25 07:50:00
9:20 AM,55.4,53.6,94,30.04,5.0,ENE,11.5,-,N/A,,Mostly Cloudy,70,2012-10-25 08:20:00
9:50 AM,55,54,95,30.04,2,NE,6.9,,,Rain,Drizzle,50,2012-10-25 08:50:00
9:50 AM,55.4,53.6,94,30.04,1.9,ENE,8.1,-,N/A,,Light Drizzle,60,2012-10-25 08:50:00
10:20 AM,55.4,53.6,94,30.04,1.7,ENE,10.4,-,N/A,,Light Drizzle,60,2012-10-25 09:20:00
10:50 AM,53.6,53.6,100,30.04,-9999.0,ENE,11.5,-,N/A,,Light Drizzle,60,2012-10-25 09:50:00
11:20 AM,53.6,53.6,100,30.04,2.2,ENE,10.4,-,N/A,,Light Drizzle,60,2012-10-25 10:20:00
11:50 AM,53.6,53.6,100,30.04,2.2,ENE,11.5,-,N/A,,Light Drizzle,60,2012-10-25 10:50:00
12:20 PM,53.6,51.8,94,30.01,-9999.0,ENE,9.2,-,N/A,,Mostly Cloudy,60,2012-10-25 11:20:00
12:50 PM,54,52,91,30.02,4,ENE,11.5,,,Rain,Light Drizzle,60,2012-10-25 11:50:00
12:50 PM,53.6,51.8,94,30.01,3.7,ENE,9.2,-,N/A,,Mostly Cloudy,60,2012-10-25 11:50:00
1:20 PM,53.6,51.8,94,30.01,3.1,ENE,9.2,-,N/A,,Light Drizzle,60,2012-10-25 12:20:00
1:50 PM,53.6,51.8,94,30.01,6.2,ENE,9.2,-,N/A,,Mostly Cloudy,60,2012-10-25 12:50:00
2:20 PM,55.4,51.8,88,29.98,6.2,ENE,11.5,-,N/A,,Mostly Cloudy,60,2012-10-25 13:20:00
2:50 PM,55.4,51.8,88,29.98,6.2,ENE,13.8,-,N/A,,Mostly Cloudy,60,2012-10-25 13:50:00
3:20 PM,55.4,50.0,82,29.98,6.2,ENE,12.7,-,N/A,,Mostly Cloudy,60,2012-10-25 14:20:00
3:50 PM,55,49,75,29.98,19,NE,10.4,,,,Overcast,50,2012-10-25 14:50:00
3:50 PM,53.6,50.0,88,29.98,6.2,ENE,12.7,-,N/A,,Mostly Cloudy,60,2012-10-25 14:50:00
4:20 PM,53.6,48.2,82,29.98,6.2,ENE,11.5,-,N/A,,Mostly Cloudy,60,2012-10-25 15:20:00
4:50 PM,53.6,48.2,82,29.98,6.2,ENE,12.7,-,N/A,,Mostly Cloudy,60,2012-10-25 15:50:00
5:20 PM,53.6,48.2,82,29.98,6.2,ENE,12.7,-,N/A,,Scattered Clouds,60,2012-10-25 16:20:00
5:50 PM,53.6,48.2,82,29.98,6.2,ENE,12.7,-,N/A,,Mostly Cloudy,60,2012-10-25 16:50:00
6:20 PM,53.6,48.2,82,29.98,6.2,ENE,12.7,-,N/A,,Mostly Cloudy,60,2012-10-25 17:20:00
6:50 PM,53,48,78,30.00,14,NE,12.7,,,,Overcast,50,2012-10-25 17:50:00
6:50 PM,51.8,48.2,88,30.01,6.2,ENE,12.7,-,N/A,,Mostly Cloudy,60,2012-10-25 17:50:00
7:20 PM,51.8,46.4,82,30.01,6.2,ENE,15.0,-,N/A,,Mostly Cloudy,60,2012-10-25 18:20:00
7:50 PM,51.8,46.4,82,30.01,6.2,ENE,13.8,-,N/A,,Mostly Cloudy,60,2012-10-25 18:50:00
8:20 PM,51.8,46.4,82,30.01,6.2,ENE,13.8,-,N/A,,Mostly Cloudy,60,2012-10-25 19:20:00
8:50 PM,50.0,44.6,82,30.01,6.2,ENE,13.8,-,N/A,,Scattered Clouds,60,2012-10-25 19:50:00
9:20 PM,50.0,44.6,82,30.01,6.2,ENE,15.0,-,N/A,,Scattered Clouds,60,2012-10-25 20:20:00
9:50 PM,50,44,72,30.02,22,NE,13.8,,,,Scattered Clouds,50,2012-10-25 20:50:00
9:50 PM,50.0,44.6,82,30.01,6.2,ENE,13.8,-,N/A,,Scattered Clouds,60,2012-10-25 20:50:00
10:20 PM,50.0,44.6,82,30.01,6.2,ENE,11.5,-,N/A,,Mostly Cloudy,60,2012-10-25 21:20:00
10:50 PM,50.0,44.6,82,30.01,6.2,ENE,11.5,-,N/A,,Mostly Cloudy,60,2012-10-25 21:50:00
11:20 PM,50.0,42.8,76,30.01,6.2,ENE,11.5,-,N/A,,Mostly Cloudy,60,2012-10-25 22:20:00
11:50 PM,50.0,42.8,76,30.01,6.2,ENE,13.8,-,N/A,,Mostly Cloudy,60,2012-10-25 22:50:00